Location: Unspecified
(0.0000°N, 0.0000°E)
Time: 08:28:33
(UTC+00:00)

Vanguard 2 - Pass Details

Date: 23 October 2021
Orbit: 554 x 2936 km, 32.9° (Epoch: 06 December)

Event Time Altitude Azimuth Distance (km) Brightness Sun altitude
Rises 18:37:21 0° 217° (SW) 5,793 12.8 -13.0°
Reaches altitude 10° 18:41:45 10° 206° (SSW) 5,098 12.2 -14.1°
Maximum altitude 18:54:49 30° 151° (SSE) 4,238 11.1 -17.3°
Enters shadow 19:05:36 17° 106° (ESE) 5,155 11.2 -19.9°
Drops below altitude 10° 19:09:12 10° 97° (E) 5,682 - -20.8°
Sets 19:14:22 0° 87° (E) 6,537 - -22.0°
